Homestead AFB, FL

11:21 AM EDT on October 16, 2019 (GMT -0400)
Dade County-Homestead Regional

Weather History for KHST - September, 2019

Change the Weather History Date:

Thursday, September 19, 2019

  Actual Average Record
Temperature  
Mean Temperature 79 °F -  
Max Temperature 86 °F 89 °F 93 °F (1938)
Min Temperature 73 °F 71 °F 67 °F (1937)
Cooling Degree Days 14    
Growing Degree Days 29 (Base 50)    
Moisture  
Dew Point 70 °F    
Average Humidity 73    
Maximum Humidity 94    
Minimum Humidity 56    
Precipitation  
Precipitation 0.20 in - - ()
Sea Level Pressure  
Sea Level Pressure 29.93 in    
Wind  
Wind Speed 14 mph (NE)    
Max Wind Speed 23 mph    
Max Gust Speed 30 mph    
Visibility 10 miles    
Events Rain    
Averages and records for this station are not official NWS values.
T = Trace of Precipitation, MM = Missing Value Source: NWS Daily Summary

Daily Weather History Graph

Daily Weather History Graph

Search for Another Location

Airport or City:

Astronomy

Sep. 19, 2019 Rise Set
Actual Time 7:08 AM EDT 7:21 PM EDT
Civil Twilight 6:45 AM EDT 7:44 PM EDT
Nautical Twilight 6:19 AM EDT 8:11 PM EDT
Astronomical Twilight 5:52 AM EDT 8:37 PM EDT
Moon 10:59 PM EDT (9/19) 11:42 AM EDT (9/19)
Length of Visible Light 12h 58m
Length of Day
12h 12m
Waning Gibbous, 74% of the Moon is Illuminated
Sep 19
Waning Gibbous
Sep 21
Last Quarter
Sep 28
New
Oct 5
First Quarter
Oct 13
Full

Hourly Weather History & Observations

Time (EDT) Temp. Heat Index Dew Point Humidity Pressure Visibility Wind Dir Wind Speed Gust Speed Precip Events Conditions
12:56 AM 81.0 °F 85.1 °F 71.4 °F 73% 29.92 in 10.0 mi NNE 11.5 mph - N/A   Mostly Cloudy
1:30 AM 80.6 °F 84.6 °F 71.6 °F 74% 29.91 in 10.0 mi NE 10.4 mph - N/A   Light Drizzle
1:47 AM 80.6 °F 84.6 °F 71.6 °F 74% 29.91 in 10.0 mi NE 13.8 mph - N/A   Overcast
1:56 AM 81.0 °F 85.2 °F 72.1 °F 74% 29.91 in 10.0 mi NE 16.1 mph - 0.00 in   Mostly Cloudy
2:56 AM 81.0 °F 84.1 °F 69.3 °F 67% 29.90 in 10.0 mi NNE 15.0 mph 23.0 mph N/A   Scattered Clouds
3:56 AM 80.1 °F 82.8 °F 68.5 °F 68% 29.89 in 10.0 mi NNE 17.3 mph - N/A   Partly Cloudy
4:56 AM 79.2 °F - 65.5 °F 63% 29.90 in 10.0 mi NNE 12.7 mph - N/A   Clear
5:56 AM 79.5 °F - 68.0 °F 68% 29.90 in 10.0 mi NNE 10.4 mph - N/A   Mostly Cloudy
6:56 AM 78.6 °F - 67.1 °F 68% 29.92 in 10.0 mi NE 11.5 mph - N/A   Clear
7:56 AM 79.7 °F - 68.5 °F 69% 29.92 in 10.0 mi NNE 10.4 mph - N/A   Mostly Cloudy
8:56 AM 80.8 °F 83.9 °F 69.3 °F 68% 29.93 in 10.0 mi NNE 16.1 mph - N/A   Mostly Cloudy
9:02 AM 82.4 °F 86.3 °F 69.8 °F 66% 29.93 in 10.0 mi NE 15.0 mph - N/A   Mostly Cloudy
9:56 AM 83.7 °F 86.0 °F 66.2 °F 56% 29.94 in 10.0 mi NE 15.0 mph 25.3 mph N/A   Partly Cloudy
10:56 AM 84.0 °F 87.0 °F 67.6 °F 58% 29.95 in 10.0 mi ENE 18.4 mph - N/A   Clear
11:56 AM 84.9 °F 88.8 °F 68.9 °F 59% 29.96 in 10.0 mi NE 15.0 mph 24.2 mph N/A   Clear
12:56 PM 85.1 °F 88.5 °F 68.5 °F 57% 29.94 in 10.0 mi NE 19.6 mph 24.2 mph N/A   Clear
1:56 PM 85.5 °F 90.8 °F 70.9 °F 62% 29.92 in 10.0 mi NE 17.3 mph 24.2 mph N/A   Scattered Clouds
2:56 PM 85.6 °F 90.4 °F 70.2 °F 60% 29.91 in 10.0 mi NE 18.4 mph 24.2 mph N/A   Partly Cloudy
3:56 PM 85.3 °F 89.4 °F 69.3 °F 59% 29.90 in 10.0 mi NNE 23.0 mph 26.5 mph N/A   Clear
4:39 PM 82.4 °F 87.2 °F 71.6 °F 70% 29.91 in 10.0 mi ENE 13.8 mph 27.6 mph N/A Rain Light Rain
4:49 PM 82.4 °F 87.2 °F 71.6 °F 70% 29.91 in 10.0 mi NE 13.8 mph - N/A   Scattered Clouds
4:56 PM 83.5 °F 87.2 °F 69.1 °F 62% 29.91 in 10.0 mi NE 20.7 mph 24.2 mph 0.00 in   Scattered Clouds
5:56 PM 82.0 °F 86.1 °F 70.3 °F 68% 29.91 in 10.0 mi NE 12.7 mph - N/A   Mostly Cloudy
6:56 PM 80.8 °F 83.8 °F 68.7 °F 67% 29.91 in 10.0 mi NE 18.4 mph 25.3 mph N/A   Scattered Clouds
7:46 PM 80.6 °F 83.9 °F 69.8 °F 70% 29.92 in 10.0 mi ENE 18.4 mph 24.2 mph N/A   Scattered Clouds
7:55 PM 78.8 °F - 71.6 °F 78% 29.93 in 10.0 mi ENE 17.3 mph 25.3 mph N/A Rain Light Rain
7:56 PM 79.0 °F - 71.1 °F 77% 29.93 in 10.0 mi ENE 16.1 mph 25.3 mph N/A Rain Light Rain
8:26 PM 75.2 °F - 71.6 °F 89% 29.94 in 2.5 mi ENE 13.8 mph 20.7 mph N/A Rain Heavy Rain
8:31 PM 73.4 °F - 71.6 °F 94% 29.94 in 5.0 mi ENE 9.2 mph - N/A Rain Light Rain
8:40 PM 75.2 °F - 71.6 °F 89% 29.94 in 10.0 mi NE 10.4 mph - N/A   Overcast
8:56 PM 75.9 °F - 70.3 °F 83% 29.94 in 10.0 mi NE 10.4 mph - 0.11 in   Overcast
9:01 PM 75.2 °F - 71.6 °F 89% 29.94 in 10.0 mi ENE 12.7 mph - N/A Rain Light Rain
9:36 PM 75.2 °F - 69.8 °F 83% 29.95 in 10.0 mi ENE 9.2 mph - N/A   Overcast
9:56 PM 76.8 °F - 72.7 °F 87% 29.95 in 10.0 mi NE 10.4 mph - 0.07 in   Mostly Cloudy
10:56 PM 79.0 °F - 72.5 °F 80% 29.96 in 10.0 mi NE 13.8 mph - N/A   Scattered Clouds
11:09 PM 78.8 °F - 71.6 °F 78% 29.96 in 10.0 mi NE 16.1 mph - N/A Rain Light Rain
11:29 PM 78.8 °F - 73.4 °F 83% 29.97 in 10.0 mi NE 17.3 mph 25.3 mph N/A Rain Light Rain
11:34 PM 77.0 °F - 73.4 °F 89% 29.97 in 10.0 mi ENE 13.8 mph 24.2 mph N/A Rain Light Rain
11:41 PM 77.0 °F - 71.6 °F 83% 29.97 in 10.0 mi ENE 11.5 mph 21.9 mph N/A   Mostly Cloudy
11:46 PM 77.0 °F - 73.4 °F 89% 29.97 in 10.0 mi ENE 18.4 mph 24.2 mph N/A   Light Drizzle
11:56 PM 75.9 °F - 72.3 °F 89% 29.97 in 6.0 mi ENE 21.9 mph 29.9 mph 0.02 in Rain Rain